Weather History for Kenosha, WI

Change the Weather History Date:

Saturday, December 10, 2011

  Actual Average Record
Temperature  
Mean Temperature 18 °F -  
Max Temperature 27 °F 35 °F 58 °F (1991)
Min Temperature 9 °F 20 °F -8 °F (1958)
Degree Days  
Heating Degree Days 47    
Moisture  
Dew Point 6 °F    
Average Humidity 56    
Maximum Humidity 73    
Minimum Humidity 35    
Precipitation  
Precipitation 0.00 in - - ()
Sea Level Pressure  
Sea Level Pressure 30.45 in    
Wind  
Wind Speed 8 mph (SW)    
Max Wind Speed 14 mph    
Max Gust Speed 21 mph    
Visibility 10 miles    
Events      
Averages and records for this station are not official NWS values.
T = Trace of Precipitation, MM = Missing Value Source: NWS Daily Summary

Daily Weather History Graph

Daily Weather History Graph

Search for Another Location

Airport:

Trip Planner

Search our weather history database for the weather conditions in past years. The results will help you decide how hot, cold, wet, or windy it might be!

Date:

Astronomy

Dec. 10, 2011 Rise Set
Actual Time 7:10 AM CST 4:18 PM CST
Civil Twilight 6:38 AM CST 4:50 PM CST
Nautical Twilight 6:03 AM CST 5:25 PM CST
Astronomical Twilight 5:28 AM CST 5:59 PM CST
Moon 4:31 PM CST (12/10) 7:10 AM CST (12/10)
Length of Visible Light 10h 11m
Length of Day
9h 07m
Full, 100% of the Moon is Illuminated
Dec 10
Full
Dec 17
Last Quarter
Dec 24
New
Jan 1
First Quarter
Jan 9
Full

Hourly Weather History & Observations

Time (CST) Temp. Windchill Dew Point Humidity Pressure Visibility Wind Dir Wind Speed Gust Speed Precip Events Conditions
12:53 AM 12.9 °F 2.6 °F 1.9 °F 62% 30.45 in 10.0 mi West 6.9 mph - N/A   Clear
2:53 AM 10.9 °F 0.2 °F 1.9 °F 67% 30.46 in 10.0 mi West 6.9 mph - N/A   Clear
3:53 AM 10.0 °F 0.4 °F 1.9 °F 70% 30.46 in 10.0 mi West 5.8 mph - N/A   Clear
4:53 AM 9.0 °F -0.9 °F 1.9 °F 73% 30.47 in 10.0 mi West 5.8 mph - N/A   Clear
5:53 AM 10.0 °F - 3.0 °F 73% 30.48 in 10.0 mi Calm Calm - N/A   Clear
7:53 AM 10.9 °F 4.7 °F 3.9 °F 73% 30.51 in 10.0 mi SW 3.5 mph - N/A   Clear
8:53 AM 15.1 °F 2.5 °F 6.1 °F 68% 30.53 in 10.0 mi West 10.4 mph - N/A   Clear
9:53 AM 19.0 °F 6.8 °F 5.0 °F 54% 30.53 in 10.0 mi West 11.5 mph - N/A   Clear
10:53 AM 21.9 °F 9.2 °F -0.0 °F 38% 30.52 in 10.0 mi West 13.8 mph - N/A   Clear
11:53 AM 25.0 °F 16.3 °F 1.0 °F 36% 30.48 in 10.0 mi SW 8.1 mph - N/A   Clear
12:53 PM 26.1 °F 14.5 °F 1.9 °F 35% 30.45 in 10.0 mi SW 13.8 mph 18.4 mph N/A   Clear
1:53 PM 27.0 °F 16.1 °F 3.0 °F 36% 30.44 in 10.0 mi SW 12.7 mph - N/A   Clear
2:53 PM 26.1 °F 15.0 °F 3.9 °F 39% 30.44 in 10.0 mi SW 12.7 mph 20.7 mph N/A   Clear
4:53 PM 23.0 °F 13.1 °F 6.1 °F 48% 30.45 in 10.0 mi SW 9.2 mph - N/A   Clear
5:53 PM 21.9 °F 12.5 °F 7.0 °F 53% 30.44 in 10.0 mi SSW 8.1 mph - N/A   Clear
6:53 PM 21.9 °F 11.7 °F 9.0 °F 58% 30.43 in 10.0 mi SSW 9.2 mph - N/A   Clear
7:53 PM 23.0 °F 13.9 °F 8.1 °F 53% 30.43 in 10.0 mi SW 8.1 mph - N/A   Clear
8:53 PM 24.1 °F 13.1 °F 10.0 °F 55% 30.42 in 10.0 mi SSW 11.5 mph - N/A   Scattered Clouds
9:00 PM 24.8 °F 14.0 °F 10.4 °F 54% 30.38 in 10.0 mi SSW 11.5 mph - N/A   Mostly Cloudy
9:26 PM 24.8 °F 14.6 °F 10.4 °F 54% 30.37 in 10.0 mi SSW 10.4 mph - N/A   Scattered Clouds
9:53 PM 24.1 °F 13.7 °F 10.9 °F 57% 30.41 in 10.0 mi SW 10.4 mph - N/A   Clear
10:53 PM 25.0 °F 14.2 °F 14.0 °F 63% 30.40 in 10.0 mi SW 11.5 mph - N/A   Clear
11:53 PM 27.0 °F 16.1 °F 16.0 °F 63% 30.39 in 8.0 mi SW 12.7 mph - N/A   Clear